Location: Barleux
(49.8972°N, 2.8912°E)
Time: 23:03:59
(UTC+00:00)

Daily predictions for brighter satellites

Satellite Brightness Start Highest point End
(mag) Time Altitude Azimuth Time Altitude Azimuth Time Altitude Azimuth
Cosmos 2346 Rocket 4.5 20:11:29 10° S 20:17:32 78° E 20:23:42 10° NNE
STARLINK-1130 (DARKSAT) 4.2 20:14:56 10° W 20:19:03 63° NNW 20:23:11 10° ENE
Cosmos 2056 Rocket 4.1 20:14:31 10° SSE 20:19:06 35° ESE 20:23:43 10° NE
Cosmos 2242 Rocket 3.6 20:14:45 10° S 20:19:09 87° E 20:23:35 10° N
STARLINK-1080 3.7 20:15:46 10° WNW 20:19:56 86° NNE 20:24:06 10° ESE
Okean 1 3.4 20:16:08 10° S 20:20:08 63° E 20:24:09 10° NNE
STARLINK-1083 4.3 20:17:56 10° WNW 20:22:02 56° N 20:26:07 10° E
ISS -3.3 20:19:49 10° W 20:23:11 63° N 20:26:32 10° E
STARLINK-1084 4.2 20:19:56 10° W 20:24:03 61° N 20:28:10 10° ENE
STARLINK-1090 3.7 20:20:45 10° WNW 20:24:55 89° NNW 20:29:04 10° ESE
Cosmos 44 Rocket 4.3 20:21:57 10° NW 20:26:31 42° WSW 20:31:10 10° S
STARLINK-1125 4.3 20:22:55 10° WNW 20:27:02 56° N 20:31:07 10° E
Meteor 1-19 Rocket 4.4 20:22:24 10° S 20:27:50 55° E 20:33:27 10° NNE
STARLINK-1098 4.2 20:24:57 10° W 20:29:03 60° N 20:33:10 10° ENE
STARLINK-67 2.8 20:27:39 10° W 20:29:33 45° NNW 20:31:28 10° ENE
SL-8 R/B 3.8 20:25:04 10° WSW 20:29:46 56° SSE 20:34:29 10° E
STARLINK-1089 3.6 20:25:44 10° WNW 20:29:54 87° SSW 20:34:03 10° ESE
STARLINK-1109 4.2 20:27:54 10° WNW 20:32:00 57° N 20:36:06 10° E
Cosmos 2278 Rocket 3.1 20:27:16 10° SSE 20:32:04 29° ESE 20:36:54 10° NE
Cosmos 1356 3.4 20:29:45 10° NNW 20:33:14 87° W 20:36:41 10° S
STARLINK-1231 4.5 20:30:15 10° SSW 20:33:48 28° SE 20:37:23 10° E
STARLINK-1123 4.3 20:29:56 10° W 20:34:03 59° N 20:38:09 10° ENE
STARLINK-1107 3.6 20:30:43 10° WNW 20:34:52 83° SSW 20:39:01 10° ESE
STARLINK-1091 4.2 20:32:53 10° WNW 20:37:00 58° N 20:41:06 10° E
Meteor 1-18 Rocket 4.2 20:31:48 10° S 20:37:21 76° E 20:43:00 10° NNE
STARLINK-1232 4.4 20:35:07 10° SSW 20:38:45 30° SE 20:42:24 10° E
Lacrosse 5 2.5 20:33:51 10° NW 20:38:50 55° NNE 20:43:48 10° E
STARLINK-1097 4.3 20:34:56 10° W 20:39:03 58° N 20:43:08 10° ENE
STARLINK-1066 3.6 20:35:42 10° WNW 20:39:51 79° SSW 20:44:00 10° ESE
NOSS 2-3 (E) 4.0 20:36:07 10° SSW 20:40:13 46° ESE 20:45:04 10° NE
STARLINK-1072 4.2 20:37:54 10° WNW 20:42:01 59° N 20:46:07 10° E
Cosmos 1844 Rocket 3.2 20:36:46 10° SW 20:42:24 65° WNW 20:48:03 10° NNE
Terra 3.0 20:38:41 10° SE 20:42:49 31° ENE 20:46:59 10° N
STARLINK-1208 4.3 20:39:58 10° SSW 20:43:41 32° SE 20:47:24 10° ENE
STARLINK-1099 4.3 20:39:55 10° W 20:44:01 57° N 20:48:06 10° ENE
STARLINK-1228 3.0 20:40:57 10° SW 20:44:16 67° SSE 20:47:35 10° ENE
STARLINK-1081 3.6 20:40:41 10° WNW 20:44:50 75° SSW 20:48:49 11° ESE
STARLINK-1096 4.1 20:42:54 10° WNW 20:47:02 61° N 20:51:08 10° E
STARLINK-1234 2.8 20:44:48 10° SW 20:47:53 66° SSE 20:50:59 10° ENE
IGS 5A 3.5 20:44:23 10° SSE 20:48:32 78° ENE 20:52:43 10° N
STARLINK-1271 4.2 20:44:53 10° SSW 20:48:39 35° SE 20:52:26 10° ENE
STARLINK-1104 4.3 20:44:55 10° W 20:49:01 56° N 20:53:07 10° ENE
STARLINK-1212 2.9 20:46:13 10° SW 20:49:15 53° SSE 20:52:18 10° ENE
STARLINK-1209 2.8 20:46:31 10° WSW 20:49:38 71° SSE 20:52:47 10° ENE
STARLINK-1105 2.9 20:46:42 10° SW 20:49:44 53° SSE 20:52:46 10° ENE
STARLINK-1070 3.7 20:45:39 10° WNW 20:49:48 71° SSW 20:53:35 12° SE
Cosmos 1300 Rocket 4.0 20:46:14 10° N 20:50:33 48° ENE 20:54:26 12° SSE
STARLINK-1247 2.9 20:47:35 10° SW 20:50:38 54° SSE 20:53:43 10° ENE
Cosmos 2084 Rocket 3.6 20:46:33 10° SW 20:50:50 79° NW 20:55:14 10° NE
STARLINK-1227 2.9 20:48:04 10° SW 20:51:05 55° SSE 20:54:08 10° ENE
Cosmos 1515 3.6 20:47:46 10° S 20:51:36 85° E 20:55:26 10° N
Crew Dragon 0.6 20:49:45 10° WNW 20:51:48 54° N 20:54:00 10° E
STARLINK-1226 2.9 20:48:54 10° SW 20:51:57 56° SSE 20:55:01 10° ENE
STARLINK-1079 4.1 20:47:52 10° WNW 20:52:00 62° NNE 20:56:07 10° E
Cosmos 407 Rocket 4.0 20:46:51 10° NNW 20:52:06 60° WSW 20:57:20 10° S
Okean 3 3.9 20:48:20 10° SSE 20:52:26 46° E 20:56:36 10° NNE
STARLINK-1215 2.9 20:49:50 10° SW 20:52:54 56° SSE 20:55:58 10° ENE
STARLINK-1154 4.1 20:49:47 10° SSW 20:53:36 37° SE 20:57:27 10° ENE
STARLINK-1144 4.4 20:49:56 10° W 20:54:01 55° N 20:58:06 10° ENE
STARLINK-1217 2.8 20:51:36 10° SW 20:54:39 58° SSE 20:57:44 10° ENE
STARLINK-1069 3.7 20:50:38 10° WNW 20:54:45 67° SSW 20:58:21 13° SE
USA 245 3.0 20:51:09 10° S 20:54:53 76° WSW 20:57:52 10° NNW
STARLINK-1229 2.8 20:52:30 10° SW 20:55:34 59° SSE 20:58:40 10° ENE
STARLINK-1270 2.8 20:53:21 10° SW 20:56:26 60° SSE 20:59:31 10° ENE
STARLINK-1116 4.0 20:52:51 10° WNW 20:56:59 64° NNE 21:01:07 10° E
STARLINK-1189 2.8 20:55:12 10° SW 20:58:16 62° SSE 21:01:22 10° ENE
STARLINK-1197 4.0 20:54:41 10° SW 20:58:33 40° SE 21:02:27 10° ENE
STARLINK-1103 4.4 20:54:56 10° W 20:59:01 55° N 21:03:06 10° ENE
STARLINK-1188 2.8 20:56:04 10° SW 20:59:09 63° SSE 21:02:15 10° ENE
Cosmos 2221 Rocket 3.9 20:54:58 10° S 20:59:19 53° E 21:03:45 10° NNE
Okean 1-7 3.6 20:55:30 10° SSW 20:59:44 60° WNW 21:03:59 10° N
STARLINK-1085 3.7 20:55:38 10° WNW 20:59:44 63° SSW 21:03:10 14° SE
STARLINK-1235 2.7 20:56:44 10° WSW 20:59:50 76° SSE 21:02:55 10° ENE
NOSS 2-3 (D) 3.7 20:55:51 10° SSW 21:00:05 61° SE 21:05:09 10° NE
STARLINK-1187 2.7 20:57:10 10° WSW 21:00:14 70° SSE 21:03:20 10° ENE
COSMOS 2406 3.4 20:54:53 10° NNW 21:00:40 75° WSW 21:05:59 12° SSE
STARLINK-1191 2.8 20:58:32 10° SW 21:01:37 65° SSE 21:04:42 10° ENE
STARLINK-1221 2.7 20:59:25 10° SW 21:02:30 66° SSE 21:05:35 10° ENE
STARLINK-1222 2.7 21:00:18 10° SW 21:03:22 67° SSE 21:06:28 10° ENE
STARLINK-1198 3.9 20:59:33 10° SW 21:03:29 43° SE 21:07:25 10° ENE
Cosmos 371 Rocket 4.2 21:00:02 12° SSE 21:03:47 30° ESE 21:07:59 10° NE
STARLINK-1101 4.4 20:59:55 10° W 21:04:00 54° N 21:08:05 10° ENE
STARLINK-1214 2.7 21:01:13 10° WSW 21:04:17 68° SSE 21:07:22 10° ENE
STARLINK-1086 3.8 21:00:38 10° WNW 21:04:43 59° SSW 21:07:56 16° SE
Resurs 01 Rocket 3.3 21:01:35 10° SSW 21:05:32 30° W 21:09:30 10° NNW
Meteor 2-4 Rocket 3.6 21:00:16 10° S 21:05:36 69° E 21:10:57 10° NNE
Abrixas rocket 2.0 21:03:32 10° WSW 21:06:25 53° SSE 21:09:19 10° E
USA 215 3.7 21:00:12 10° E 21:06:39 64° NNE 21:13:07 10° WNW
STARLINK-1094 3.9 21:02:50 10° WNW 21:06:59 68° NNE 21:11:07 10° E
SPOT 1/Viking Rocket 3.6 21:02:31 11° SSE 21:07:36 84° WSW 21:12:48 10° NNW
STARLINK-1199 3.8 21:04:31 10° SW 21:08:29 46° SE 21:12:27 10° ENE
STARLINK-1102 4.4 21:04:57 10° W 21:09:02 54° N 21:13:06 10° ENE
Sich 1 Rocket 4.0 21:04:47 10° NNW 21:09:21 65° W 21:13:53 10° S
STARLINK-1095 3.9 21:05:36 10° WNW 21:09:40 55° SSW 21:12:43 17° SE
USA 229 DEB 3.9 21:04:22 10° SW 21:10:57 75° NW 21:17:57 10° NE
USA 229 3.9 21:04:30 10° SW 21:11:04 75° NW 21:18:03 10° NE
Meteor 1-4 Rocket 2.6 21:08:09 10° SSW 21:11:36 72° WNW 21:15:04 10° N
STARLINK-1117 3.9 21:07:49 10° WNW 21:11:58 70° NNE 21:16:07 10° E
STARLINK-1210 3.8 21:09:26 10° SW 21:13:24 49° SSE 21:17:25 10° ENE
STARLINK-1111 4.4 21:09:56 10° W 21:14:01 54° N 21:18:05 10° ENE
STARLINK-1077 3.9 21:10:35 10° WNW 21:14:37 52° SSW 21:17:29 18° SE
SPOT 5 3.1 21:12:28 14° SSE 21:16:49 78° ENE 21:22:09 10° NNW
STARLINK-1078 3.8 21:12:47 10° WNW 21:16:57 73° NNE 21:21:06 10° ESE
STARLINK-1219 3.7 21:14:21 10° SW 21:18:22 52° SSE 21:22:25 10° ENE
Cosmos 1624 Rocket 4.2 21:13:05 10° SSW 21:18:25 79° WNW 21:23:48 10° NNE
NOSS 3-1 (C) 4.0 21:13:25 10° WSW 21:19:01 63° NW 21:25:40 10° NE
STARLINK-1073 4.4 21:14:56 10° WNW 21:19:01 54° N 21:23:06 10° E
OPS 8737 4.4 21:15:39 10° SW 21:19:10 75° NW 21:22:06 10° NE
STARLINK-1075 4.0 21:15:35 10° WNW 21:19:35 48° SSW 21:22:16 19° SE
NOSS 3-1 (A) 3.4 21:14:22 10° SW 21:19:57 86° NW 21:26:35 10° NE
Cosmos 1741 Rocket 4.4 21:15:28 10° NNW 21:20:37 54° ENE 21:24:31 17° SE
ATLAS CENTAUR R/B 3.4 21:19:04 10° WNW 21:20:44 19° NNW 21:22:10 10° NNE
STARLINK-1108 3.8 21:17:46 10° WNW 21:21:56 75° NNE 21:25:53 11° ESE
Cosmos 2279 Rocket 4.0 21:16:45 10° N 21:23:02 89° W 21:28:35 14° S
STARLINK-1211 3.6 21:19:17 10° SW 21:23:19 56° SSE 21:27:24 10° ENE
STARLINK-1121 4.4 21:19:55 10° WNW 21:23:59 54° N 21:28:04 10° E
Aureole 1 Rocket 4.4 21:20:21 10° NW 21:24:01 35° WSW 21:28:38 10° S
STARLINK-1093 4.1 21:20:35 10° WNW 21:24:34 45° SW 21:27:04 20° SSE
Cosmos 1140 Rocket 4.5 21:21:05 10° NW 21:25:57 41° WSW 21:30:41 11° S
Okean 2 Rocket 3.3 21:22:05 10° NNW 21:26:31 68° W 21:30:13 14° S
STARLINK-1071 3.7 21:22:45 10° WNW 21:26:56 78° NNE 21:30:40 13° ESE
CENTAUR R/B 4.4 21:20:44 10° NW 21:27:32 36° NNE 21:35:10 10° E
STARLINK-1245 3.6 21:24:14 10° SW 21:28:19 59° SSE 21:32:24 10° ENE
STARLINK-1106 4.3 21:24:55 10° WNW 21:29:00 55° N 21:33:05 10° E
STARLINK-1074 4.2 21:25:35 10° WNW 21:29:31 42° SW 21:31:51 21° SSE
NOSS 2-3 (C) 3.9 21:26:30 10° SW 21:30:52 79° NW 21:36:12 10° NE
STARLINK-1110 3.7 21:26:58 10° WNW 21:31:08 81° NNE 21:34:41 14° ESE
BREEZE-M DEB (TANK) 4.2 21:13:44 10° WNW 21:31:20 77° SSW 21:35:38 15° ESE
STARLINK-1233 3.5 21:29:10 10° SW 21:33:16 63° SSE 21:37:23 10° ENE
STARLINK-1112 4.3 21:29:55 10° WNW 21:34:00 55° N 21:38:05 10° E
ERBS 2.9 21:32:41 17° S 21:34:38 32° SE 21:37:38 10° ENE
Cosmos 1850 Rocket 4.1 21:29:23 10° NNW 21:34:45 72° ENE 21:38:31 20° SSE
STARLINK-1124 3.6 21:32:44 10° WNW 21:36:54 85° NNE 21:40:14 15° ESE
STARLINK-1204 3.5 21:34:08 10° SW 21:38:15 67° SSE 21:42:23 10° ENE
STARLINK-1128 4.3 21:34:55 10° WNW 21:39:00 55° N 21:43:06 10° E
STARLINK-1088 4.4 21:35:35 10° WNW 21:39:24 37° SW 21:41:24 23° SSE
Cosmos 2151 Rocket 3.8 21:35:01 10° NNW 21:39:32 72° W 21:42:53 18° S
Cosmos 2082 Rocket 2.2 21:34:30 10° NNW 21:40:17 88° WSW 21:44:18 20° SSE
STARLINK-1122 3.6 21:37:42 10° WNW 21:41:53 88° NNE 21:45:01 17° ESE
STARLINK-1238 3.5 21:39:04 10° WSW 21:43:11 71° SSE 21:47:20 10° ENE
STARLINK-1113 4.3 21:39:54 10° WNW 21:44:00 56° N 21:48:05 10° E
Okean 1 Rocket 3.3 21:39:44 10° N 21:44:12 62° ENE 21:46:51 23° SSE
ERS-1 Rocket 3.5 21:40:28 15° S 21:44:36 54° W 21:49:34 10° NNW
SeaSat 1 3.1 21:41:14 10° NE 21:45:46 35° ESE 21:48:18 22° SSE
STARLINK-1126 3.5 21:42:38 10° WNW 21:46:48 88° SSW 21:49:44 19° ESE
STARLINK-1201 3.5 21:44:03 10° WSW 21:48:11 75° SSE 21:52:20 10° ENE
Cosmos 1833 Rocket 3.2 21:43:28 10° NW 21:48:53 51° WSW 21:52:51 18° S
STARLINK-1119 4.2 21:44:54 10° WNW 21:49:00 57° N 21:53:05 10° E
STARLINK-1240 4.5 21:50:02 26° SSE 21:50:47 27° SE 21:54:20 10° E
Aureole 2 Rocket 3.6 21:51:13 22° ESE 21:51:14 22° ESE 21:53:44 10° NE
SL-4 R/B 1.4 21:48:15 10° NW 21:51:27 63° WSW 21:52:33 35° S
Cosmos 1805 3.9 21:47:50 10° N 21:51:36 42° ENE 21:53:26 25° SE
STARLINK-1082 3.5 21:47:41 10° WNW 21:51:51 84° SSW 21:54:34 21° ESE
Meteor 1-15 Rocket 4.3 21:45:59 10° NNW 21:51:57 86° ENE 21:56:04 21° SSE
Cosmos 304 Rocket 4.3 21:50:10 23° SSE 21:52:31 39° ESE 21:56:58 10° NE
STARLINK-1206 3.5 21:49:01 10° WSW 21:53:09 79° SSE 21:57:19 10° ENE
STARLINK-1114 4.2 21:49:54 10° WNW 21:54:00 58° N 21:58:06 10° E
STARLINK-1216 4.4 21:54:48 27° SSE 21:55:44 29° SE 21:59:21 10° E
Cosmos 1092 Rocket 4.4 21:52:20 21° SSE 21:56:03 45° E 22:01:51 10° NNE
Cosmos 332 Rocket 3.8 21:52:44 18° S 21:56:20 63° ESE 22:01:13 10° NNE
STARLINK-1100 3.5 21:52:39 10° WNW 21:56:49 80° SSW 21:59:21 23° ESE
Cosmos 1455 Rocket 4.4 21:53:10 10° N 21:56:56 27° ENE 21:59:07 18° ESE
STARLINK-1205 3.5 21:53:59 10° WSW 21:58:08 83° SSE 22:02:18 10° ENE
Cosmos 2369 Rocket 4.0 21:57:13 13° ESE 21:58:36 14° E 22:01:28 10° ENE
STARLINK-1130 (DARKSAT) 4.2 21:54:52 10° WNW 21:58:58 59° N 22:03:05 10° E
ISS -3.8 21:56:41 10° WNW 22:00:02 67° SSW 22:01:21 33° SE
STARLINK-1237 4.3 21:59:35 27° S 22:00:41 32° SE 22:04:23 10° ENE
USA 238 DEB 4.4 21:54:41 10° NW 22:01:39 53° NE 22:08:52 10° ESE
USA 238 4.5 21:54:47 10° NW 22:01:44 53° NE 22:08:57 10° ESE
STARLINK-1083 3.5 21:57:38 10° WNW 22:01:47 76° SSW 22:04:08 25° ESE
STARLINK-67 3.6 22:00:00 10° WNW 22:01:48 30° N 22:02:31 22° NE
Cosmos 1066 Rocket 4.1 21:58:19 20° S 22:02:06 71° E 22:07:27 10° NNE
STARLINK-1218 3.5 21:58:57 10° WSW 22:03:06 87° SSE 22:07:16 10° ENE
Cosmos 1378 3.6 22:02:30 31° SE 22:03:47 44° E 22:07:21 10° NNE
STARLINK-1084 4.1 21:59:51 10° WNW 22:03:58 60° N 22:08:05 10° E
STARLINK-1202 4.2 22:04:22 27° S 22:05:38 34° SE 22:09:24 10° ENE
STARLINK-1125 3.5 22:02:37 10° WNW 22:06:46 72° SSW 22:08:55 27° SE
STARLINK-1254 3.6 22:03:56 10° WSW 22:08:05 89° NNW 22:12:15 10° ENE
STARLINK-1098 4.1 22:04:52 10° WNW 22:08:59 62° N 22:13:06 10° E
Cosmos 1943 Rocket 3.4 22:07:36 20° SE 22:09:14 23° ESE 22:13:30 10° NE
STARLINK-1109 3.6 22:07:35 10° WNW 22:11:43 68° SSW 22:13:40 29° SE
SL-8 R/B 3.6 22:07:20 10° W 22:12:09 76° S 22:16:59 10° E
STARLINK-1231 3.6 22:08:56 10° WSW 22:13:05 85° NNW 22:17:15 10° ENE
STARLINK-1123 4.0 22:09:50 10° WNW 22:13:58 63° NNE 22:18:05 10° E
Cosmos 1437 Rocket 3.2 22:12:21 18° SSW 22:14:57 55° WNW 22:18:43 10° N
STARLINK-1246 4.0 22:13:54 27° SSW 22:15:31 39° SE 22:19:24 10° ENE
Cosmos 2278 Rocket 2.9 22:10:17 10° SW 22:15:51 56° NW 22:21:28 10° NNE
STARLINK-1091 3.6 22:12:34 10° WNW 22:16:41 64° SSW 22:18:27 32° SE
STARLINK-1232 3.6 22:13:55 10° WSW 22:18:04 82° NNW 22:22:14 10° ENE
STARLINK-1097 4.0 22:14:49 10° WNW 22:18:57 65° NNE 22:23:04 10° E
Terra 2.8 22:17:24 18° SSW 22:20:28 39° W 22:24:58 10° NNW
STARLINK-1224 3.9 22:18:39 26° SSW 22:20:29 42° SE 22:24:24 10° ENE
STARLINK-1228 4.0 22:17:43 10° W 22:20:59 50° N 22:24:15 10° ENE
ALOS 2 3.8 22:19:22 20° ESE 22:21:38 32° ENE 22:25:34 10° N
STARLINK-1072 3.7 22:17:34 10° WNW 22:21:39 60° SSW 22:23:14 34° SE
Lacrosse 5 2.2 22:16:57 10° WNW 22:21:50 49° SW 22:24:01 29° SSE
STARLINK-1208 3.7 22:18:53 10° WSW 22:23:02 79° NNW 22:27:12 10° ENE
STARLINK-1234 3.9 22:20:46 10° W 22:23:49 47° N 22:26:51 10° ENE
STARLINK-1099 3.9 22:19:47 10° WNW 22:23:55 67° NNE 22:27:49 11° E
STARLINK-1212 3.8 22:22:04 10° W 22:25:07 50° N 22:28:10 10° ENE
Thor Agena Rocket 3.7 22:20:00 10° NNE 22:25:17 63° ESE 22:28:05 27° S
STARLINK-1225 3.9 22:23:26 25° SSW 22:25:27 45° SE 22:29:25 10° ENE
Crew Dragon 2.2 22:23:24 10° W 22:24:19 20° W 22:24:19 20° W
STARLINK-1105 3.8 22:22:33 10° W 22:25:35 50° N 22:28:37 10° ENE
STARLINK-1209 3.9 22:22:41 10° W 22:25:45 47° N 22:28:49 10° ENE
Spot 4 4.0 22:23:24 29° SSE 22:25:53 69° ENE 22:30:45 10° N
STARLINK-1247 3.8 22:23:27 10° W 22:26:31 50° N 22:29:34 10° ENE
STARLINK-1096 3.7 22:22:34 10° WNW 22:26:39 57° SSW 22:28:02 36° SSE
STARLINK-1227 3.8 22:23:56 10° W 22:26:58 50° N 22:30:00 10° ENE
STARLINK-1226 3.8 22:24:47 10° W 22:27:50 50° N 22:30:52 10° ENE
STARLINK-1271 3.7 22:23:54 10° WSW 22:28:02 76° NNW 22:32:12 10° ENE
STARLINK-1215 3.8 22:25:43 10° W 22:28:46 50° N 22:31:50 10° ENE
STARLINK-1104 3.9 22:24:47 10° WNW 22:28:56 69° NNE 22:32:37 13° E
STARLINK-1230 3.8 22:28:12 24° SSW 22:30:24 48° SSE 22:34:24 10° ENE
STARLINK-1217 3.8 22:27:30 10° W 22:30:33 49° N 22:33:35 10° ENE
BREEZE-M DEB (TANK) 3.5 22:17:01 10° WSW 22:30:48 63° SSE 22:34:33 10° E
STARLINK-1229 3.8 22:28:25 10° W 22:31:28 49° N 22:34:31 10° ENE
STARLINK-1079 3.8 22:27:32 10° WNW 22:31:35 53° SSW 22:32:48 38° SSE
SL-4 R/B 2.2 22:31:54 26° NE 22:31:54 26° NE 22:33:34 10° N
NOSS 8 (F) 4.0 22:31:09 46° SSW 22:31:55 75° SE 22:34:59 10° NE
Cosmos 1452 Rocket 4.2 22:26:50 10° SW 22:32:00 55° WNW 22:37:14 10° NNE
STARLINK-1270 3.8 22:29:17 10° W 22:32:20 49° N 22:35:24 10° ENE
Cosmos 1544 Rocket 4.2 22:28:42 10° N 22:32:51 43° ENE 22:34:36 28° SE
STARLINK-1154 3.8 22:28:53 10° WSW 22:33:02 73° NNW 22:37:11 10° ENE
EXPRESS MD2 4.3 22:30:08 14° SW 22:33:40 52° SSE 22:41:52 10° ENE
STARLINK-1144 3.8 22:29:46 10° WNW 22:33:55 72° NNE 22:37:24 14° E
STARLINK-1189 3.9 22:31:08 10° W 22:34:11 48° N 22:37:14 10° ENE
Cosmos 1726 4.4 22:32:32 10° NNE 22:34:48 15° ENE 22:36:25 12° E
STARLINK-1188 3.9 22:32:01 10° W 22:35:03 48° N 22:38:07 10° ENE
STARLINK-1243 3.7 22:32:59 22° SW 22:35:21 51° SSE 22:39:24 10° ENE
STARLINK-1235 4.0 22:32:47 10° W 22:35:47 46° N 22:38:47 10° ENE
STARLINK-1187 3.9 22:33:10 10° W 22:36:11 46° N 22:39:11 10° ENE
STARLINK-1116 3.9 22:32:32 10° WNW 22:36:33 50° SSW 22:37:36 39° SSE
Cosmos 1766 3.4 22:33:01 10° NNW 22:36:59 70° W 22:38:27 37° S
STARLINK-1191 3.9 22:34:31 10° W 22:37:32 47° N 22:40:34 10° ENE
STARLINK-1197 3.9 22:33:52 10° W 22:38:01 71° NNW 22:42:10 10° ENE
SL-27 R/B 3.7 22:34:54 10° N 22:38:16 35° ENE 22:39:37 25° ESE
STARLINK-1221 3.9 22:35:24 10° W 22:38:24 47° N 22:41:26 10° ENE
STARLINK-1103 3.7 22:34:45 10° WNW 22:38:55 74° NNE 22:42:10 16° ESE
STARLINK-1222 3.9 22:36:17 10° W 22:39:18 47° N 22:42:20 10° ENE
STARLINK-1214 3.9 22:37:12 10° W 22:40:13 47° N 22:43:14 10° ENE
STARLINK-1236 3.6 22:37:45 21° SW 22:40:19 54° SSE 22:44:23 10° ENE
Abrixas rocket 2.3 22:38:53 10° W 22:41:15 48° WSW 22:41:15 48° WSW
Cosmos 1553 Rocket 4.3 22:35:44 10° N 22:42:01 57° ENE 22:45:31 26° SE
Cosmos 1953 4.1 22:38:52 10° NNE 22:42:03 22° ENE 22:43:45 17° ESE
STARLINK-1198 3.9 22:38:50 10° W 22:42:58 68° NNW 22:47:07 10° ENE
STARLINK-1101 3.7 22:39:44 10° WNW 22:43:53 77° NNE 22:46:57 18° ESE
Cosmos 371 Rocket 4.4 22:39:27 10° SW 22:44:04 42° WNW 22:48:42 10° NNE
Cosmos 1461 2.9 22:43:04 35° SSW 22:44:38 63° SE 22:48:57 10° NE
STARLINK-1094 4.0 22:42:32 10° WNW 22:46:29 43° SW 22:47:10 39° S
Cosmos 1271 Rocket 4.0 22:46:32 25° ESE 22:47:11 27° E 22:50:29 10° NNE
STARLINK-1199 4.0 22:43:52 10° W 22:48:01 66° NNW 22:52:09 10° ENE
STARLINK-1102 3.6 22:44:44 10° WNW 22:48:54 80° NNE 22:51:45 20° ESE
Cosmos 2026 Rocket 4.0 22:45:53 27° S 22:49:29 80° E 22:55:51 10° NNE
USA 215 3.3 22:45:48 25° SSE 22:49:44 61° SW 22:56:14 10° WNW
STARLINK-1269 3.5 22:47:16 18° SW 22:50:14 62° SSE 22:54:21 10° ENE
Aureole 3 Rocket 4.0 22:45:15 10° N 22:50:19 71° E 22:54:05 28° SSE
Cosmos 1758 3.9 22:46:49 10° N 22:50:43 46° ENE 22:52:04 33° SE
STARLINK-1117 4.1 22:47:32 10° WNW 22:51:26 40° SW 22:51:56 39° SSW
STARLINK-1210 4.0 22:48:51 10° W 22:52:58 64° NNW 22:57:06 10° ENE
STARLINK-1111 3.6 22:49:42 10° WNW 22:53:52 83° NNE 22:56:31 22° ESE
Cosmos 1707 3.9 22:53:56 27° ESE 22:54:42 30° E 22:58:08 10° NNE
STARLINK-1200 3.5 22:52:04 16° SW 22:55:14 66° SSE 22:59:21 10° ENE
Cosmos 1900 4.3 22:50:58 10° NW 22:56:01 85° NE 22:58:31 31° SE
Cosmos 1733 3.6 22:52:33 10° NNW 22:56:18 54° W 22:57:26 38° SSW
STARLINK-1078 4.2 22:52:31 10° WNW 22:56:23 38° SW 22:56:43 37° SSW
NOSS 2-2 (D) 3.3 22:57:13 48° SSE 22:57:40 52° SE 23:01:35 10° NE
STARLINK-1219 4.1 22:53:51 10° W 22:57:58 63° NNW 23:02:06 10° ENE
STARLINK-1073 3.5 22:54:41 10° WNW 22:58:52 87° NNE 23:01:19 24° ESE
NOSS 3-2 (C) 4.2 22:52:05 10° NW 22:59:23 70° NE 23:07:07 12° SE
STARLINK-1192 3.5 22:56:50 15° SW 23:00:12 70° SSE 23:04:20 10° ENE
NOSS 8 (H) 4.0 23:00:42 65° SW 23:01:05 88° SE 23:04:11 10° NE
STARLINK-1108 4.3 22:57:32 10° WNW 23:01:20 35° SW 23:01:30 35° SSW
Cosmos 1975 Rocket 3.2 23:00:54 33° SSW 23:02:51 72° W 23:07:18 10° N
STARLINK-1211 4.1 22:58:50 10° W 23:02:57 61° N 23:07:04 10° ENE
STARLINK-1121 3.5 22:59:39 10° WNW 23:03:49 89° S 23:06:04 26° ESE
STARLINK-1244 3.5 23:01:35 14° WSW 23:05:09 74° SSE 23:09:18 10° ENE
STARLINK-1071 4.4 23:02:33 10° WNW 23:06:16 33° SW 23:06:16 33° SW
STARLINK-1245 4.2 23:03:51 10° W 23:07:58 60° N 23:12:04 10° ENE
STARLINK-1106 3.5 23:04:38 10° WNW 23:08:48 86° SSW 23:10:51 29° ESE
STARLINK-1138 3.5 23:06:22 12° WSW 23:10:08 78° SSE 23:14:18 10° ENE
ERBS 3.3 23:07:39 10° W 23:10:51 46° NNW 23:14:05 10° NE
Meteor 2-10 4.4 23:06:33 10° N 23:11:33 53° ENE 23:13:53 29° SE
Cosmos 2297 4.0 23:07:18 16° SW 23:11:54 65° WNW 23:17:37 10° NNE
Cosmos 1242 Rocket 2.5 23:11:36 54° SSE 23:12:15 70° E 23:15:55 10° NNE
STARLINK-1203 3.5 23:08:20 10° WSW 23:12:33 81° SSE 23:16:46 10° ENE
STARLINK-1233 4.2 23:08:50 10° W 23:12:57 59° N 23:17:03 10° ENE
STARLINK-1112 3.5 23:09:38 10° WNW 23:13:47 82° SSW 23:15:39 32° ESE
STARLINK-1143 3.5 23:11:09 11° WSW 23:15:07 82° SSE 23:19:17 10° ENE
ATLAS 3B R/B 3.7 23:08:56 10° NW 23:15:22 45° NNE 23:22:00 10° ESE
NOSS 2-2 (E) 3.1 23:15:11 37° SW 23:16:35 87° NW 23:20:49 10° NE
STARLINK-1204 4.2 23:13:51 10° W 23:17:57 58° N 23:22:03 10° ENE
STARLINK-1128 3.5 23:14:37 10° WNW 23:18:46 78° SSW 23:20:26 35° SE
Cosmos 2266 Rocket 4.5 23:16:09 27° SE 23:19:04 46° E 23:24:49 10° NNE
CENTAUR R/B 3.3 23:11:36 10° NW 23:19:28 76° NE 23:27:41 12° SE
Cosmos 1470 2.7 23:15:48 10° NNW 23:19:42 75° W 23:20:37 50° SSW
STARLINK-1241 3.5 23:15:56 10° WSW 23:20:05 86° SSE 23:24:15 10° ENE
Cosmos 1503 Rocket 4.4 23:16:40 10° NNW 23:21:55 59° ENE 23:24:51 26° SE
STARLINK-1238 4.3 23:18:49 10° W 23:22:55 57° N 23:27:01 10° ENE
SeaSat 1 3.5 23:18:41 10° NNE 23:23:22 44° NW 23:28:01 10° WSW
Cosmos 2082 Rocket 4.2 23:20:07 10° WNW 23:23:32 16° W 23:26:09 12° SW
STARLINK-1113 3.5 23:19:35 10° WNW 23:23:44 74° SSW 23:25:12 38° SE
Aureole 2 Rocket 4.1 23:23:16 17° W 23:24:49 25° WNW 23:27:27 10° N
STARLINK-1239 3.5 23:20:54 10° WSW 23:25:03 90° S 23:29:14 10° ENE
STARLINK-1201 4.3 23:23:51 10° W 23:27:56 56° N 23:32:02 10° ENE
STARLINK-1119 3.5 23:24:34 10° WNW 23:28:42 70° SSW 23:29:59 42° SE
BREEZE-M DEB 3.7 23:25:40 10° WSW 23:29:07 78° SSE 23:41:23 10° E
STARLINK-1240 3.5 23:25:54 10° WSW 23:30:02 87° NNW 23:34:13 10° ENE
BREEZE-M DEB (TANK) 2.8 23:27:07 10° W 23:30:38 74° SSW 23:35:17 10° ESE
Cosmos 1867 4.3 23:25:52 10° NW 23:31:13 52° NE 23:36:08 12° ESE
STARLINK-1206 4.3 23:28:51 10° W 23:32:56 55° N 23:37:01 10° ENE
STARLINK-1114 3.5 23:29:34 10° WNW 23:33:41 66° SSW 23:34:46 45° SSE
Cosmos 1455 Rocket 4.1 23:30:52 10° NNW 23:34:49 34° W 23:36:14 27° SW
STARLINK-1216 3.6 23:30:52 10° WSW 23:35:02 83° NNW 23:39:12 10° ENE
Helios 1A 2.9 23:33:57 45° S 23:35:12 85° WSW 23:39:24 10° NNW
Cosmos 968 Rocket 3.4 23:30:40 10° NNW 23:35:53 84° WSW 23:38:01 36° SSE
ISS -1.1 23:34:10 10° W 23:34:16 10° W 23:34:16 10° W
Cosmos 1354 Rocket 4.2 23:31:32 10° NNW 23:36:50 69° ENE 23:39:38 28° SE
STARLINK-1205 4.3 23:33:51 10° W 23:37:56 55° N 23:42:01 10° ENE
STARLINK-1130 (DARKSAT) 3.6 23:34:32 10° WNW 23:38:38 62° SSW 23:39:32 48° SSE
Cosmos 1908 4.4 23:35:11 10° N 23:38:43 34° ENE 23:40:02 26° ESE
NOSS 2-2 (C) 3.4 23:37:49 32° WSW 23:39:24 68° NW 23:43:35 10° NE
ATLAS 2AS CENTAUR R/B 3.5 23:35:54 28° SSE 23:39:34 44° ESE 23:46:58 10° NE
STARLINK-1237 3.6 23:35:52 10° WSW 23:40:01 80° NNW 23:44:11 10° ENE
Cosmos 2369 Rocket 2.1 23:38:59 32° SSW 23:41:42 80° ESE 23:47:23 10° NNE
STARLINK-1218 4.3 23:38:50 10° W 23:42:55 54° N 23:47:00 10° ENE
STARLINK-1084 3.6 23:39:31 10° WNW 23:43:36 58° SSW 23:44:19 50° SSE
Cosmos 1486 Rocket 4.2 23:39:39 10° NNW 23:44:52 58° WSW 23:46:50 36° SSW
STARLINK-1202 3.7 23:40:52 10° WSW 23:45:01 77° NNW 23:49:11 10° ENE
NOSS 3-2 (A) 4.2 23:38:10 10° NW 23:45:30 59° SW 23:50:12 27° SSE
Cosmos 1025 Rocket 3.0 23:45:35 42° SSW 23:46:57 72° WNW 23:51:15 10° N
STARLINK-1254 4.4 23:43:50 10° W 23:47:55 54° N 23:52:00 10° ENE
STARLINK-1098 3.7 23:44:32 10° WNW 23:48:36 54° SSW 23:49:06 50° S
Cosmos 2315 Rocket 4.2 23:42:32 10° N 23:48:45 67° ENE 23:52:12 27° SSE
Helios 1B rocket 3.3 23:47:56 10° NNE 23:51:49 38° E 23:52:51 33° SE
Cosmos 1943 Rocket 2.4 23:49:05 24° SW 23:52:27 67° WNW 23:58:04 10° NNE
USA 238 DEB 4.1 23:45:48 10° NW 23:52:45 53° WSW 23:56:22 29° S
STARLINK-1231 4.4 23:48:51 10° W 23:52:56 54° N 23:57:01 10° ENE
STARLINK-1123 3.7 23:49:31 10° WNW 23:53:33 51° SSW 23:53:53 49° SSW
SL-8 R/B 3.9 23:49:51 10° W 23:54:29 48° SSW 23:55:49 38° SSE
STARLINK-1246 3.8 23:50:49 10° WSW 23:54:58 72° NNW 23:59:08 10° ENE
Resurs 1-4 Rocket 4.4 23:53:41 10° ENE 23:55:42 12° E 23:57:43 10° ESE
